Lexington, KY

12:34 PM EST on January 24, 2017 (GMT -0500)
Blue Grass

Weather History for KLEX - September, 2012

Change the Weather History Date:

Wednesday, September 12, 2012

  Actual Average Record
Temperature  
Mean Temperature 70 °F 70 °F  
Max Temperature 82 °F 80 °F 97 °F (1939)
Min Temperature 58 °F 59 °F 41 °F (1940)
Degree Days  
Heating Degree Days 0 1  
Month to date heating degree days 3 4  
Since 1 July heating degree days 3 6  
Cooling Degree Days 5 5  
Month to date cooling degree days 97 83  
Year to date cooling degree days 1325 1100  
Growing Degree Days 18 (Base 50)    
Moisture  
Dew Point 58 °F    
Average Humidity 68    
Maximum Humidity 90    
Minimum Humidity 45    
Precipitation  
Precipitation 0.00 in 0.11 in 2.31 in (1920)
Month to date precipitation 2.65 1.17  
Year to date precipitation 30.26 32.84  
Snow  
Snow 0.00 in 0.00 in - ()
Month to date snowfall 0.0 0.0  
Since 1 July snowfall 0.0 0.0  
Since 1 September snowfall 0.0 0.0  
Snow Depth 0.00 in    
Sea Level Pressure  
Sea Level Pressure 30.25 in    
Wind  
Wind Speed 4 mph (South)    
Max Wind Speed 10 mph    
Max Gust Speed 13 mph    
Visibility 10 miles    
Events      
T = Trace of Precipitation, MM = Missing Value Source: NWS Daily Summary

Daily Weather History Graph

Daily Weather History Graph

Search for Another Location

Airport or City:

Trip Planner

Search our weather history database for the weather conditions in past years. The results will help you decide how hot, cold, wet, or windy it might be!

Date:

Astronomy

Sep. 12, 2012 Rise Set
Actual Time 7:18 AM EDT 7:50 PM EDT
Civil Twilight 6:51 AM EDT 8:16 PM EDT
Nautical Twilight 6:20 AM EDT 8:47 PM EDT
Astronomical Twilight 5:48 AM EDT 9:19 PM EDT
Moon 3:36 AM EDT (9/12) 5:35 PM EDT (9/12)
Length of Visible Light 13h 25m
Length of Day
12h 32m
Waning Crescent, 14% of the Moon is Illuminated
Sep 12
Waning Crescent
Sep 15
New
Sep 22
First Quarter
Sep 29
Full
Oct 8
Last Quarter

Hourly Weather History & Observations

Time (EDT) Temp. Heat Index Dew Point Humidity Pressure Visibility Wind Dir Wind Speed Gust Speed Precip Events Conditions
12:54 AM 62.1 °F - 55.0 °F 78% 30.22 in 10.0 mi ESE 4.6 mph - N/A   Clear
1:54 AM 61.0 °F - 55.0 °F 81% 30.22 in 10.0 mi SE 5.8 mph - N/A   Clear
2:54 AM 60.1 °F - 55.0 °F 83% 30.22 in 10.0 mi SE 4.6 mph - N/A   Clear
3:54 AM 61.0 °F - 55.0 °F 81% 30.22 in 10.0 mi SE 4.6 mph - N/A   Clear
4:54 AM 60.1 °F - 55.9 °F 86% 30.22 in 10.0 mi SE 5.8 mph - N/A   Scattered Clouds
5:54 AM 60.1 °F - 55.9 °F 86% 30.24 in 10.0 mi SSE 6.9 mph - N/A   Clear
6:54 AM 59.0 °F - 55.9 °F 90% 30.25 in 10.0 mi SSE 6.9 mph - N/A   Clear
7:54 AM 60.1 °F - 57.0 °F 90% 30.28 in 10.0 mi SSE 6.9 mph - N/A   Mostly Cloudy
8:54 AM 64.0 °F - 60.1 °F 87% 30.29 in 10.0 mi South 4.6 mph - N/A   Clear
9:54 AM 70.0 °F - 61.0 °F 73% 30.30 in 10.0 mi SSW 5.8 mph - N/A   Clear
10:54 AM 73.9 °F - 61.0 °F 64% 30.31 in 10.0 mi WSW 8.1 mph - N/A   Clear
11:54 AM 77.0 °F - 62.1 °F 60% 30.30 in 10.0 mi WSW 8.1 mph - N/A   Clear
12:54 PM 79.0 °F - 61.0 °F 54% 30.30 in 10.0 mi SW 5.8 mph - N/A   Clear
1:54 PM 79.0 °F - 59.0 °F 50% 30.27 in 10.0 mi SSW 4.6 mph - N/A   Scattered Clouds
2:54 PM 80.1 °F 80.7 °F 59.0 °F 48% 30.25 in 10.0 mi SSE 4.6 mph - N/A   Mostly Cloudy
3:54 PM 80.1 °F 80.7 °F 59.0 °F 48% 30.23 in 10.0 mi South 4.6 mph - N/A   Mostly Cloudy
4:54 PM 80.1 °F 80.7 °F 59.0 °F 48% 30.22 in 10.0 mi SW 5.8 mph - N/A   Mostly Cloudy
5:54 PM 80.1 °F 80.6 °F 57.9 °F 47% 30.22 in 10.0 mi SW 4.6 mph - N/A   Scattered Clouds
6:54 PM 75.9 °F - 61.0 °F 60% 30.22 in 10.0 mi WSW 3.5 mph - N/A   Partly Cloudy
7:54 PM 73.9 °F - 60.1 °F 62% 30.23 in 10.0 mi Calm Calm - N/A   Scattered Clouds
8:54 PM 73.0 °F - 60.1 °F 64% 30.24 in 10.0 mi Calm Calm - N/A   Scattered Clouds
9:54 PM 70.0 °F - 61.0 °F 73% 30.25 in 10.0 mi Calm Calm - N/A   Partly Cloudy
10:54 PM 66.9 °F - 60.1 °F 79% 30.24 in 10.0 mi Calm Calm - N/A   Mostly Cloudy
11:54 PM 66.9 °F - 61.0 °F 81% 30.25 in 10.0 mi Calm Calm - N/A   Overcast